388  
ASUS44 KSHV 241110  
RWRSHV  
 
WEATHER ROUNDUP FOR THE FOUR STATE AREA  
NATIONAL WEATHER SERVICE SHREVEPORT LA  
600 AM CDT FRI MAY 24 2019  
 
NOTE: "FAIR" INDICATES FEW OR NO CLOUDS BELOW 12000 FEET  
WITH NO SIGNIFICANT WEATHER AND/OR S TO VISIBILITY
.  
 
!LAZ001-LAZ014-TXZ097-241200  
SHREVEPORT...MONROE...TEXARKANA RADIOS  
 
CITY SKY/WX TMP DP RH WIND PRES REMARKS
 
SHREVEPORT CLOUDY 71 69 93 S5 30.04R  
MONROE N/A 71 69 93 CALM 30.08S FOG  
NATCHITOCHES CLOUDY 70 70 99 CALM 30.06S FOG  
TEXARKANA CLEAR 71 69 93 S8 30.04R  

 
 
!LAZ001-LAZ014-TXZ097-241200  
OTHER LOCATIONS...  
 
CITY SKY/WX TMP DP RH WIND PRES REMARKS
 
DOWNTOWN SHV PTCLDY 73 70 90 SE6 30.05R  
BOSSIER CITY N/A 70 70 100 SE3 30.05R  
RUSTON MOCLDY 72 70 94 S6 30.11S  
LITTLE ROCK CLEAR 70 66 87 CALM 30.07R  
EL DORADO N/A 70 70 100 CALM 30.07R  
JACKSON MOCLDY 72 69 90 SE3 30.12R  
NEW ORLEANS N/A 75 68 78 SE6 30.08R  
HOUSTON PTCLDY 76 75 97 SE6 29.99S  
LUFKIN MOCLDY 72 71 97 SE8 30.02R  
TYLER CLOUDY 75 70 84 S9 30.02R  
DAL FT WORTH MOCLDY 76 70 82 SE15 29.95S  

 
 
!TXZ136-TXZ165-241200  
TYLER...LUFKIN RADIOS  
 
CITY SKY/WX TMP DP RH WIND PRES REMARKS
 
TYLER CLOUDY 75 70 84 S9 30.02R  
GILMER CLOUDY 71 69 93 SE5 30.03S  
LONGVIEW CLEAR 72 71 97 S6 30.02R  
LUFKIN MOCLDY 72 71 97 SE8 30.02R  

 
 
!TXZ136-TXZ165-241200  
OTHER LOCATIONS...  
 
CITY SKY/WX TMP DP RH WIND PRES REMARKS
 
NACOGDOCHES CLOUDY 73 72 96 SE8 30.04R  
BEAUMONT N/A 77 72 84 SE9 30.02S  
HOUSTON PTCLDY 76 75 97 SE6 29.99S  
COLLEGE STN CLOUDY 77 73 87 SE12 29.98R  
AUSTIN CLOUDY 79 73 82 SE12 29.94R  
DAL FT WORTH MOCLDY 76 70 82 SE15 29.95S  
TEXARKANA CLEAR 71 69 93 S8 30.04R  
SHREVEPORT CLOUDY 71 69 93 S5 30.04R  
FORT POLK FOG 73 72 97 SE5 30.05R VSB 3/8  
LAKE CHARLES N/A 73 71 93 SE5 30.04S  

 
 
 
CLICK HERE TO GO TO PREVIOUS BULLETINS.

The Nexlab LA Page
The Nexlab TX Page
The Nexlab AR Page
The Nexlab OK Page Main Text Page